Theta_e
349 353 353 354 354 354 352 351 349 346 345 344 344 345 345 345 341 340 342 343 343 344 351 351 352 353 353 353 352 350 350 347 345 346 347 349 349 349 348 349 348 346 348
345 351 353 354 355 352 349 349 351 348 347 345 345 342 343 338 335 340 346 347 346 345 346 352 353 352 353 352 352 349 346 348 349 351 350 349 349 348 345 347 349 349 348
347 351 353 353 354 353 349 348 349 350 351 349 346 341 349 344 343 345 347 349 352 353 353 350 345 350 351 349 350 347 347 345 345 348 348 346 349 350 350 348 345 347 348
346 348 352 352 353 353 350 345 346 351 351 349 349 342 339 343 343 346 347 345 351 353 353 353 347 353 351 350 349 350 349 346 343 346 348 349 349 348 348 347 349 348 346
348 347 352 351 352 353 352 351 350 349 350 349 348 341 343 345 346 352 353 349 351 352 352 350 348 350 350 346 346 344 345 348 347 345 344 343 339 344 348 346 346 347 346
348 347 350 351 355 354 350 350 348 346 348 345 346 344 346 347 346 349 353 353 352 353 351 351 349 346 342 339 339 342 344 346 346 346 337 334 340 345 346 348 347 346 343
347 347 349 352 352 352 351 351 349 346 346 345 337 346 342 346 348 350 353 350 353 352 350 352 348 343 342 341 342 344 346 346 342 339 331 341 343 347 347 345 340 344 345
346 348 348 350 352 349 352 351 349 351 351 348 337 339 346 344 344 347 350 353 352 352 351 348 343 340 340 340 341 341 344 349 349 338 334 343 346 342 339 341 341 333 330
346 350 349 347 352 351 351 348 351 351 352 351 345 339 338 339 342 348 346 346 346 350 350 349 346 341 336 336 336 340 344 349 347 338 339 342 345 342 336 331 334 333 332
348 350 350 349 353 351 350 348 350 350 352 352 352 350 348 346 345 346 346 344 347 348 346 348 345 340 334 335 335 338 343 348 348 346 341 339 342 337 330 340 343 341 343
356 353 350 351 349 350 350 350 349 354 353 353 353 352 350 350 351 350 344 346 344 343 347 349 340 336 333 330 331 336 342 344 348 348 348 337 339 331 327 334 342 344 344
356 356 353 351 350 349 348 352 348 352 352 352 351 351 349 347 346 344 345 344 346 346 344 349 343 334 332 334 336 337 340 340 345 348 348 333 335 333 331 328 327 332 334
354 354 353 352 350 350 349 351 351 350 352 352 350 348 342 341 342 342 347 345 348 346 345 346 346 337 334 336 339 339 341 338 343 348 347 337 336 336 333 331 328 328 334
352 353 351 350 350 351 350 349 349 350 349 352 350 348 344 342 350 349 350 348 346 345 341 343 343 338 334 338 346 348 347 346 344 347 345 333 336 338 337 334 331 330 328
352 351 349 349 349 351 350 349 347 348 348 344 342 343 344 348 352 350 349 349 348 344 340 343 342 341 334 339 345 344 345 346 346 345 340 342 343 341 340 334 331 331 331
351 351 348 345 347 351 351 347 348 347 345 347 347 347 349 349 351 349 347 349 348 345 339 340 343 346 345 342 342 342 343 345 346 346 345 345 346 344 344 342 338 332 331
350 351 349 346 345 348 350 348 343 346 348 351 349 347 350 350 349 348 345 348 348 343 343 343 346 347 349 344 343 342 344 342 347 347 347 346 347 345 347 345 343 340 334
351 350 350 349 346 346 348 350 346 347 349 349 349 348 344 348 349 349 349 349 345 345 347 347 347 347 347 346 344 346 343 341 343 348 348 345 346 348 349 347 344 342 340
352 351 350 349 347 345 347 352 350 350 351 349 350 351 349 344 349 350 350 348 345 344 348 347 347 346 346 345 348 346 344 339 341 342 344 347 347 349 349 348 346 343 342
352 352 351 350 349 347 347 351 351 352 353 354 353 352 351 349 348 350 349 348 345 345 350 349 347 346 342 343 346 344 344 342 340 341 342 344 347 349 347 347 348 346 345
350 355 354 353 351 350 351 350 351 352 352 352 353 352 351 351 350 348 347 349 348 346 348 349 348 346 342 341 342 343 345 343 341 340 340 343 345 346 346 345 347 348 348
352 352 356 356 354 352 352 351 351 351 350 351 354 351 350 350 351 351 347 348 349 349 349 350 349 346 344 343 347 346 341 343 343 343 341 340 341 345 344 345 346 348 347
354 354 356 356 357 356 354 353 353 353 352 349 350 352 351 351 351 351 350 347 348 347 346 346 350 348 346 345 347 345 339 341 339 343 342 342 342 342 343 343 343 346 347
351 357 356 358 355 357 356 355 354 353 352 352 350 349 350 350 350 351 351 349 347 347 350 350 348 348 347 344 346 347 343 342 340 340 345 345 344 343 344 344 344 345 349
342 351 355 358 358 355 354 354 353 352 353 352 351 351 350 350 349 350 351 351 347 346 348 349 349 349 348 346 344 342 344 343 342 341 339 341 347 346 344 344 343 343 343
342 344 354 353 353 355 356 354 354 354 352 351 351 351 351 350 350 350 351 351 350 348 345 346 349 349 348 347 347 345 343 343 343 343 339 340 343 345 346 345 345 345 345
Wind_Speed
21 21 20 22 23 23 26 28 27 28 31 32 32 32 34 33 31 28 25 23 21 19 20 21 20 18 18 19 20 18 18 19 20 20 18 19 19 18 17 17 16 17 17
28 23 20 23 23 23 25 28 26 29 31 31 31 33 33 33 29 26 24 24 23 21 20 19 19 19 18 18 18 17 19 23 21 18 16 16 16 14 15 16 16 16 15
30 24 23 23 23 23 25 26 25 26 27 31 34 33 29 31 29 25 24 23 23 21 18 16 19 18 18 17 17 19 19 21 18 18 18 17 17 15 16 15 15 15 14
30 26 24 23 23 24 25 25 25 26 27 30 31 31 30 27 25 23 21 20 20 18 17 15 15 17 17 17 18 19 20 19 17 15 18 18 15 14 14 16 14 15 15
27 27 24 22 23 24 25 26 28 28 26 27 28 29 27 25 22 21 18 18 16 15 14 14 14 16 17 18 18 17 17 15 10 7 12 15 15 15 15 14 15 14 14
28 28 24 22 23 24 26 26 28 28 26 26 27 27 25 22 20 18 16 16 14 13 13 12 14 16 17 17 15 14 11 9 5 13 12 15 17 16 14 12 11 12 12
31 29 25 22 23 25 26 27 28 28 26 26 28 24 24 21 19 15 14 13 13 13 12 11 11 13 16 16 15 12 10 10 8 17 15 16 16 15 13 13 10 13 12
34 30 26 24 24 24 25 26 26 25 24 24 26 24 20 18 15 13 12 12 12 10 11 10 9 10 13 14 14 11 9 7 9 16 16 16 15 14 12 11 10 11 11
33 31 29 27 25 24 24 24 24 23 22 22 24 23 21 17 14 13 12 11 10 9 9 8 7 7 10 13 12 10 8 6 15 17 15 15 15 14 13 13 12 10 10
34 32 30 28 28 27 25 24 23 23 22 20 19 19 19 17 15 13 12 11 10 7 7 8 6 7 8 11 11 8 6 8 14 13 15 14 15 14 14 14 13 11 9
25 33 32 31 29 29 27 25 25 22 21 20 19 19 18 18 16 13 12 11 8 7 7 7 5 7 8 11 11 7 6 8 9 13 15 17 16 14 13 14 13 13 11
26 26 32 32 30 28 27 25 25 23 23 22 22 20 19 17 15 12 12 10 9 9 8 8 6 7 10 10 9 7 7 6 5 6 17 17 16 13 13 13 14 14 13
29 29 32 32 30 29 28 27 25 25 25 23 21 21 20 17 15 15 13 13 12 11 11 10 9 9 11 10 8 4 5 8 7 9 17 15 14 13 13 12 13 14 15
30 31 33 32 31 29 27 28 28 26 26 25 23 22 21 20 19 18 19 17 16 14 13 13 12 10 11 10 9 4 7 12 10 12 16 14 13 13 12 13 13 13 15
29 31 34 32 31 28 26 27 27 27 26 25 24 23 22 22 19 22 21 20 19 15 16 15 14 12 12 12 11 8 9 5 9 14 15 14 13 14 12 13 13 14 14
34 36 34 33 32 29 26 28 27 26 26 25 25 24 25 24 20 25 21 22 21 16 14 16 16 13 12 12 13 11 9 7 11 18 17 17 13 16 15 14 14 14 15
34 39 38 36 34 33 28 27 28 27 26 25 26 26 26 27 22 22 22 22 21 14 14 17 18 17 16 13 15 14 12 9 8 15 19 17 15 14 15 15 15 15 15
31 36 38 37 37 37 33 30 30 27 27 28 26 27 28 29 27 24 23 24 21 18 18 19 20 20 20 16 18 16 15 14 10 14 18 19 20 15 15 16 17 17 16
36 35 37 35 37 38 35 29 31 27 26 28 30 29 30 31 31 29 26 23 23 23 24 24 23 23 22 20 21 19 17 18 15 16 17 19 22 19 16 15 17 20 20
27 36 39 39 37 37 35 31 30 30 27 24 29 35 32 32 32 34 31 26 26 28 24 24 26 23 24 25 19 20 21 21 20 20 20 19 20 24 22 20 21 21 23
25 28 34 35 43 39 33 34 33 30 31 28 25 30 34 34 34 35 35 31 28 30 32 28 28 27 28 28 22 22 24 21 23 24 26 24 24 20 25 25 25 24 24
31 31 34 41 39 41 40 40 33 35 32 31 26 25 28 33 34 37 37 35 32 31 31 30 32 27 27 26 15 10 2 15 27 29 32 30 31 28 27 29 29 31 30
26 29 36 39 35 39 38 29 30 28 32 32 34 28 27 29 35 36 40 38 34 33 33 34 35 33 25 26 27 9 2 4 3 21 28 32 32 32 29 28 29 29 35
10 6 30 31 34 33 37 33 30 27 25 31 33 37 32 32 32 35 41 41 39 38 36 34 37 38 32 28 23 34 23 4 3 3 7 16 26 35 34 30 26 24 25
6 8 6 12 25 21 20 23 26 27 28 31 30 35 37 34 36 36 40 44 43 40 41 36 33 36 37 31 33 23 28 25 22 6 4 6 11 20 31 33 27 25 24
12 10 8 6 6 13 18 21 25 27 29 31 31 34 34 34 38 42 41 45 46 44 43 43 38 39 40 37 33 32 27 14 15 8 4 10 10 15 15 22 23 24 27
Wind_Direction
154 142 137 131 126 127 127 124 126 132 136 136 133 132 133 131 131 126 119 116 115 115 116 112 111 112 113 112 113 114 114 113 109 109 111 111 113 112 113 111 111 115 116
148 143 137 133 130 127 127 128 129 129 131 136 133 131 132 135 136 129 119 118 115 114 117 117 114 115 116 116 116 118 119 118 116 112 113 115 111 112 115 118 116 114 117
146 141 136 134 132 131 129 132 129 131 132 134 133 130 126 129 131 127 119 115 113 115 113 115 117 116 115 114 118 118 119 116 114 111 112 120 120 115 119 118 119 119 121
144 141 136 135 135 134 134 137 134 133 132 134 134 135 131 132 127 123 120 119 117 114 114 114 116 118 118 117 119 123 124 121 101 112 117 116 118 119 120 121 123 126 122
146 144 138 140 138 136 135 135 135 136 132 133 137 139 133 133 130 125 123 120 118 117 117 119 122 122 118 121 125 127 128 130 116 115 131 131 128 128 129 126 126 126 126
151 147 144 142 140 139 139 137 140 140 138 143 140 138 139 137 133 130 127 124 124 121 119 121 128 133 131 132 131 130 125 120 161 164 153 136 130 130 126 123 128 131 134
152 149 146 145 144 145 144 143 146 148 147 147 150 146 145 143 140 136 135 129 128 125 123 128 135 140 137 139 138 135 122 122 125 156 151 148 138 138 139 145 142 145 142
153 151 152 150 149 148 149 148 148 149 148 151 157 155 150 152 149 145 137 140 136 135 131 135 144 151 149 150 151 146 125 123 170 174 161 159 156 151 148 153 148 150 155
158 155 157 156 153 151 155 155 154 155 154 155 160 163 165 159 151 149 149 140 142 151 145 153 160 166 167 163 163 149 137 136 175 180 176 171 167 164 159 158 159 157 150
160 161 163 160 160 158 164 162 159 161 163 162 161 164 166 166 161 160 158 155 156 154 165 172 172 180 177 171 175 157 142 126 172 188 196 189 177 174 167 166 166 163 161
155 165 167 165 166 166 167 167 168 165 167 169 170 171 173 174 172 174 175 172 169 166 184 180 181 183 178 175 187 178 165 158 167 214 224 198 189 184 177 176 176 177 178
159 167 171 171 169 169 170 168 173 170 175 177 180 182 184 186 186 192 189 189 186 191 192 194 197 190 176 175 188 204 203 217 229 247 209 201 196 191 184 185 185 186 188
167 169 177 176 175 175 176 176 177 179 181 184 187 190 192 195 197 204 200 198 196 202 197 201 204 201 197 194 195 205 278 285 263 240 208 198 199 202 194 195 195 193 192
171 176 181 182 181 182 184 184 184 186 187 189 192 194 194 197 207 209 207 202 202 207 200 207 209 207 208 211 210 228 282 290 266 199 199 193 197 210 211 208 206 204 202
173 181 185 186 187 187 192 192 192 194 195 197 199 201 202 203 209 215 210 206 206 207 207 209 213 211 218 222 236 263 277 265 203 190 205 194 190 207 216 219 215 212 212
178 184 187 189 190 191 195 196 198 201 202 201 203 205 209 209 213 212 209 210 213 206 207 213 213 212 219 228 249 254 252 212 227 215 206 203 202 212 216 222 221 220 218
184 183 187 190 192 195 199 203 205 208 210 212 214 214 217 216 217 217 214 214 216 209 208 217 219 225 236 239 253 250 243 233 222 213 206 216 210 217 221 226 226 228 227
182 187 188 192 193 196 202 206 212 214 215 221 224 225 225 226 225 222 217 218 220 211 214 221 226 229 233 241 243 245 245 243 222 208 224 226 220 223 226 231 228 233 232
188 186 193 195 198 199 203 208 211 218 220 228 232 232 231 230 229 226 222 225 217 216 218 221 226 225 230 236 238 239 248 249 243 230 231 240 231 233 234 243 236 235 235
198 192 197 199 203 204 204 209 212 215 221 231 239 237 239 230 231 229 228 225 218 213 223 223 226 226 229 230 235 242 248 250 248 248 245 247 252 245 242 245 244 237 241
207 191 191 195 202 203 207 208 214 223 226 232 240 239 239 234 229 228 229 225 223 219 220 221 225 226 227 231 241 247 251 253 253 255 250 251 252 258 252 251 250 246 244
210 206 202 206 203 204 204 210 211 219 229 232 235 237 239 236 233 230 230 230 226 226 227 224 226 226 229 226 216 234 279 265 255 252 251 252 251 252 253 255 256 254 250
217 215 207 209 209 208 211 208 212 218 228 235 239 245 240 238 237 237 232 232 232 230 227 228 229 231 225 228 226 196 159 225 259 241 248 251 252 251 250 254 258 263 254
88 75 224 222 219 218 220 214 212 214 218 231 234 239 247 246 244 241 235 232 230 228 227 232 233 235 229 230 232 227 233 203 194 307 246 253 258 252 250 252 257 258 255
88 81 78 236 236 244 261 253 250 252 244 247 248 239 240 246 244 243 239 235 231 231 230 230 232 230 232 223 223 219 229 236 242 198 273 296 300 267 249 248 252 257 259
132 123 147 177 229 249 256 259 257 257 262 263 256 252 244 244 246 242 239 236 235 235 232 231 230 231 231 228 228 226 225 218 221 204 205 242 253 276 252 248 253 266 268